Weather in Bazar

Ukraine / Zhytomyr Region     51°02′37″N   29°17′36″E
temp.,
°C
wind,
m/s
gust,
m/s
humid.,
%
clouds,
%
prec.,
mm/h
press.,
hPa
HPBL,
m
10 april, sat
sat1000:00+2ssw36665 0.0 102688
03:00+1ssw486911 0.0 1026121
06:000s47725 0.0 1025118
09:00+5ssw58575 0.0 1025336
12:00+10ssw68415 0.0 10241504
15:00+12ssw68375 0.0 10231778
18:00+12ssw46455 0.0 1023923
21:00+6s47610 0.0 1024105
11 april, sun
sun1100:00+5s49660 0.0 1025154
03:00+4ssw49700 0.0 1026138
06:00+3ssw35710 0.0 102781
09:00+7s45570 0.0 1028235
12:00+12s45410 0.0 10281021
15:00+14sse44350 0.0 10271451
18:00+14sse34400 0.0 10261057
21:00+8ese47590 0.0 1028111
12 april, mon
mon1200:00+6se34610 0.0 102852
03:00+5se22650 0.0 102715
06:00+4ese33690 0.0 102624
09:00+9e45590 0.0 1025264
12:00+13ese33411 0.0 10241020
15:00+16ese23346 0.0 10221374
18:00+15e333812 0.0 1020540
21:00+8ese477656 0.0 1022135
13 april, tue
tue1300:00+7sse228817 0.0 102116
03:00+7w118431 0.0 102012
06:00+6nne00845 0.0 102010
09:00+11e11645 0.0 1019214
12:00+16sse11460 0.0 1018877
15:00+18sse21400 0.0 10171429
18:00+17se32475 0.0 10161255
21:00+11se378343 0.0 1017144
14 april, wed
wed1400:00+11se368393 0.0 1016191
03:00+11sse3687100 0.0 1016224
06:00+10sse369380 0.3 1015234
09:00+11se368283 0.3 1015420
12:00+15se565279 0.0 10141581
15:00+14se4659100 0.0 10141028
18:00+14sse565882 0.0 10141042
21:00+11se367085 0.1 1015212